CW9197 Juva FI current weather conditions

sailwx.info

Wind from 320 at 1 knots gusting 6

Air temperature 1.1° C
Dewpoint 0.8° C

Last reported at 2019-Sep-22 01:00 UTC.
Time now 2019-Sep-22 01:59 UTC

Location: N 61°53' E 027°53'.
View on Google Maps.

See reports from other nearby stations

  
Tides and Currents Weather Stations Pressure Air Temp Water Temp Dewpoint Dewpoint Depression Visibility Wind Speed Wind Dir Waves Ship Positions
date/time (UTC)wind fromknots sea level pressurealtimeterstation pressurevisibilityair tempwater tempwave heightnotes
2019-Sep-22 01:00 320 1 gusting 6 1.1
2019-Sep-22 00:50 326 1 gusting 8 1.1
2019-Sep-22 00:40 337 1 gusting 5 1.1
2019-Sep-22 00:30 333 1 gusting 6 1.1
2019-Sep-22 00:20 325 2 gusting 6 1.7
2019-Sep-22 00:10 335 2 gusting 5 1.7
2019-Sep-22 00:00 330 2 gusting 8 1.7
2019-Sep-21 23:50 329 1 gusting 6 1.7
2019-Sep-21 23:40 316 0 gusting 6 1.7
2019-Sep-21 23:30 328 0 gusting 3 2.2
2019-Sep-21 23:20 323 0 gusting 3 2.2
2019-Sep-21 23:10 341 0 gusting 4 2.2
2019-Sep-21 23:00 338 1 gusting 5 2.2
2019-Sep-21 22:50 326 1 gusting 6 2.2
2019-Sep-21 22:40 336 0 gusting 5 2.2
2019-Sep-21 22:30 327 0 gusting 3 2.2
2019-Sep-21 22:20 323 1 gusting 5 2.2
2019-Sep-21 22:10 327 0 gusting 3 2.2
2019-Sep-21 22:00 335 1 gusting 5 2.2
2019-Sep-21 21:50 336 1 gusting 3 2.2
2019-Sep-21 21:40 325 1 gusting 6 2.2
2019-Sep-21 21:30 331 1 gusting 5 2.2
2019-Sep-21 21:20 333 1 gusting 5 2.2
2019-Sep-21 21:10 323 2 gusting 6 2.8
2019-Sep-21 21:00 334 1 gusting 7 2.8
2019-Sep-21 20:50 329 1 gusting 5 2.8
2019-Sep-21 20:40 327 1 gusting 6 3.3
2019-Sep-21 20:30 337 3 gusting 9 3.3
2019-Sep-21 20:20 333 1 gusting 6 3.3
2019-Sep-21 20:10 330 2 gusting 6 3.3
2019-Sep-21 20:00 324 1 gusting 6 3.3
2019-Sep-21 19:50 307 1 gusting 9 3.3
2019-Sep-21 19:40 321 2 gusting 6 3.3
2019-Sep-21 19:30 328 0 gusting 5 3.9
2019-Sep-21 19:20 330 3 gusting 12 3.9
2019-Sep-21 19:10 303 1 gusting 9 3.9
2019-Sep-21 19:00 276 1 gusting 3 3.3
2019-Sep-21 18:50 283 0 gusting 3 3.3
2019-Sep-21 18:40 312 0 gusting 4 3.3
2019-Sep-21 18:30 306 0 gusting 4 3.3
2019-Sep-21 18:20 307 0 gusting 4 3.3
2019-Sep-21 18:10 285 0 gusting 3 3.3
2019-Sep-21 18:00 274 3.9
2019-Sep-21 17:50 289 3.9
2019-Sep-21 17:40 278 0 gusting 3 3.9
2019-Sep-21 17:30 281 4.4
2019-Sep-21 17:20 298 0 gusting 5 4.4
2019-Sep-21 17:10 308 0 gusting 5 4.4
2019-Sep-21 17:00 301 0 gusting 2 4.4
2019-Sep-21 16:50 325 0 gusting 2 4.4
2019-Sep-21 16:40 309 0 gusting 3 4.4
2019-Sep-21 16:30 297 4.4
2019-Sep-21 16:20 309 0 gusting 3 5.0
2019-Sep-21 16:10 309 0 gusting 2 5.0
2019-Sep-21 16:00 318 5.6
2019-Sep-21 15:50 315 0 gusting 4 5.6
2019-Sep-21 15:40 316 0 gusting 2 6.1
2019-Sep-21 15:30 314 0 gusting 2 6.1
2019-Sep-21 15:20 338 0 gusting 2 6.1
2019-Sep-21 15:10 344 0 gusting 2 6.1
2019-Sep-21 15:00 003 6.7
2019-Sep-21 14:50 335 0 gusting 3 6.7
2019-Sep-21 14:40 338 6.7
2019-Sep-21 14:30 024 6.7
2019-Sep-21 14:20 021 6.7
2019-Sep-21 14:10 018 6.7
2019-Sep-21 14:00 014 0 gusting 1 6.7
2019-Sep-21 13:50 354 0 gusting 2 6.7
2019-Sep-21 13:40 328 0 gusting 2 6.7
2019-Sep-21 13:30 325 6.7
2019-Sep-21 13:20 332 6.7
2019-Sep-21 13:10 006 6.7
2019-Sep-21 13:00 351 0 gusting 1 6.7
2019-Sep-21 12:50 020 6.7
2019-Sep-21 12:40 326 6.7
2019-Sep-21 12:30 068 6.7
2019-Sep-21 12:20 047 6.7
2019-Sep-21 12:10 042 6.7
2019-Sep-21 12:00 025 0 gusting 2 6.7
2019-Sep-21 11:50 009 6.7
2019-Sep-21 11:40 014 6.7
2019-Sep-21 11:30 311 6.7
2019-Sep-21 11:20 043 0 gusting 1 6.7
2019-Sep-21 11:10 348 6.7
2019-Sep-21 11:00 010 6.7
2019-Sep-21 10:50 025 6.7
2019-Sep-21 10:40 354 6.7
2019-Sep-21 10:30 041 6.7
2019-Sep-21 10:20 022 6.1
2019-Sep-21 10:10 012 6.1
2019-Sep-21 10:00 014 6.1
2019-Sep-21 09:50 007 6.1
2019-Sep-21 09:40 355 6.1
2019-Sep-21 09:30 351 0 gusting 1 6.1
2019-Sep-21 09:20 048 6.1
2019-Sep-21 09:10 066 0 gusting 2 6.1
2019-Sep-21 09:00 060 6.1
2019-Sep-21 08:50 351 5.6
2019-Sep-21 08:40 072 5.6
2019-Sep-21 08:30 077 5.6
2019-Sep-21 08:20 064 5.6
2019-Sep-21 08:10 031 5.6
2019-Sep-21 08:00 067 5.6
2019-Sep-21 07:50 012 5.6
2019-Sep-21 07:40 026 5.0
2019-Sep-21 07:30 002 5.0
2019-Sep-21 07:20 036 4.4
2019-Sep-21 07:10 060 4.4
2019-Sep-21 07:00 020 4.4
2019-Sep-21 06:50 020 4.4
2019-Sep-21 06:40 4.4
2019-Sep-21 06:30 3.9
2019-Sep-21 06:20 202 3.9
2019-Sep-21 06:10 3.3
2019-Sep-21 06:00 2.8
2019-Sep-21 05:50 048 2.8
2019-Sep-21 05:40 2.8
2019-Sep-21 05:30 067 2.8
2019-Sep-21 05:20 2.2
2019-Sep-21 05:10 2.2
2019-Sep-21 05:00 2.2
2019-Sep-21 04:50 1.7
2019-Sep-21 04:40 019 2.2
2019-Sep-21 04:30 225 1.7
2019-Sep-21 04:20 225 1.7
2019-Sep-21 04:10 219 1.7
2019-Sep-21 04:00 1.7
2019-Sep-21 03:50 1.7
2019-Sep-21 03:40 1.7
2019-Sep-21 03:30 1.7
2019-Sep-21 03:20 178 1.7
2019-Sep-21 03:10 1.7
2019-Sep-21 03:00 1.7
2019-Sep-21 02:50 1.7
2019-Sep-21 02:40 192 1.1
2019-Sep-21 02:30 202 1.1
2019-Sep-21 02:20 1.1
2019-Sep-21 02:10 1.1
2019-Sep-21 02:00 1.1
2019-Sep-21 01:50 1.1
2019-Sep-21 01:40 1.1
2019-Sep-21 01:30 244 1.1
2019-Sep-21 01:20 239 1.1
2019-Sep-21 01:10 247 0 gusting 0 1.1
2019-Sep-21 01:00 225 0 gusting 0 1.1
2019-Sep-21 00:50 241 1.1
2019-Sep-21 00:40 228 1.1
2019-Sep-21 00:30 225 1.1
2019-Sep-21 00:20 1.1
2019-Sep-21 00:10 1.1
2019-Sep-21 00:00 1.1
2019-Sep-20 23:50 247 1.1
2019-Sep-20 23:40 247 0 gusting 0 1.1
2019-Sep-20 23:30 230 0 gusting 0 1.7
2019-Sep-20 23:20 227 0 gusting 0 1.7
2019-Sep-20 23:10 242 0 gusting 0 1.7
2019-Sep-20 23:00 226 0 gusting 0 1.7
2019-Sep-20 22:50 223 1.7
2019-Sep-20 22:40 225 0 gusting 1 1.7
2019-Sep-20 22:30 218 0 gusting 1 1.7
2019-Sep-20 22:20 219 1.1
2019-Sep-20 22:10 225 1.1
2019-Sep-20 22:00 225 0 gusting 0 1.1
2019-Sep-20 21:50 230 0 gusting 1 1.7
2019-Sep-20 21:40 227 0 gusting 1 1.7
2019-Sep-20 21:30 225 0 gusting 1 1.7
2019-Sep-20 21:20 244 1.7
2019-Sep-20 21:10 249 1.7
2019-Sep-20 21:00 265 1.7
2019-Sep-20 20:50 251 1.7
2019-Sep-20 20:40 243 2.2
2019-Sep-20 20:30 227 0 gusting 1 2.2
2019-Sep-20 20:20 235 0 gusting 2 2.2
2019-Sep-20 20:10 226 2.2
2019-Sep-20 20:00 224 2.2
2019-Sep-20 19:50 221 0 gusting 1 2.2
2019-Sep-20 19:40 216 2.8
2019-Sep-20 19:30 207 0 gusting 2 2.8
2019-Sep-20 19:20 208 2.8
2019-Sep-20 19:10 227 3.3
2019-Sep-20 19:00 218 3.3
2019-Sep-20 18:50 202 3.3
2019-Sep-20 18:40 227 0 gusting 1 3.3
2019-Sep-20 18:30 210 3.3
2019-Sep-20 18:20 264 3.3
2019-Sep-20 18:10 260 3.9
2019-Sep-20 18:00 264 3.9
2019-Sep-20 17:50 291 3.9
2019-Sep-20 17:40 282 4.4
2019-Sep-20 17:30 255 4.4
2019-Sep-20 17:20 227 4.4
2019-Sep-20 17:10 157 4.4
2019-Sep-20 17:00 233 5.0
2019-Sep-20 16:50 279 5.0
2019-Sep-20 16:40 270 5.6
2019-Sep-20 16:30 240 5.6
2019-Sep-20 16:20 266 6.1
2019-Sep-20 16:10 313 6.1
2019-Sep-20 16:00 274 6.1
2019-Sep-20 15:50 290 6.7
2019-Sep-20 15:40 277 0 gusting 4 7.2
2019-Sep-20 15:30 277 0 gusting 3 7.2
2019-Sep-20 15:20 287 7.2
2019-Sep-20 15:10 307 0 gusting 2 7.2
2019-Sep-20 15:00 310 1 gusting 5 7.8
2019-Sep-20 14:50 291 1 gusting 5 8.3
2019-Sep-20 14:40 281 1 gusting 6 8.3
2019-Sep-20 14:30 274 2 gusting 7 8.3
2019-Sep-20 14:20 277 2 gusting 9 8.3
2019-Sep-20 14:10 283 1 gusting 7 8.9
2019-Sep-20 14:00 260 1 gusting 6 8.9
2019-Sep-20 13:50 254 1 gusting 6 8.9
2019-Sep-20 13:40 247 2 gusting 5 8.9
2019-Sep-20 13:30 241 2 gusting 10 8.9
2019-Sep-20 13:20 238 2 gusting 10 8.9
2019-Sep-20 13:10 259 1 gusting 6 9.4
2019-Sep-20 13:00 244 3 gusting 6 9.4
2019-Sep-20 12:50 248 2 gusting 6 8.3
2019-Sep-20 12:40 260 1 gusting 6 8.3
2019-Sep-20 12:30 275 3 gusting 8 7.8
2019-Sep-20 12:20 284 3 gusting 10 7.2
2019-Sep-20 12:10 306 2 gusting 7 7.8
2019-Sep-20 12:00 322 2 gusting 6 7.8
2019-Sep-20 11:50 293 1 gusting 6 8.3
2019-Sep-20 11:40 274 3 gusting 10 8.9
2019-Sep-20 11:30 260 3 gusting 7 9.4
2019-Sep-20 11:20 274 3 gusting 7 9.4
2019-Sep-20 11:10 249 2 gusting 9 9.4
2019-Sep-20 11:00 264 4 gusting 9 8.9
2019-Sep-20 10:50 258 3 gusting 13 8.9
2019-Sep-20 10:40 275 4 gusting 10 8.9
2019-Sep-20 10:30 274 3 gusting 10 8.3
2019-Sep-20 10:20 263 5 gusting 14 8.3
2019-Sep-20 10:10 292 3 gusting 9 8.3
2019-Sep-20 10:00 309 1 gusting 8 8.3
2019-Sep-20 09:50 291 1 gusting 6 7.8
2019-Sep-20 09:40 278 2 gusting 9 7.8
2019-Sep-20 09:30 284 3 gusting 10 7.2
2019-Sep-20 09:20 264 3 gusting 9 6.7
2019-Sep-20 09:10 288 1 gusting 4 6.7
2019-Sep-20 09:00 267 1 gusting 5 6.7
2019-Sep-20 08:50 234 0 gusting 4 6.1
2019-Sep-20 08:40 216 5.0
2019-Sep-20 08:30 256 0 gusting 5 5.0
2019-Sep-20 08:20 241 0 gusting 3 5.0
2019-Sep-20 08:10 242 1 gusting 4 4.4
2019-Sep-20 08:00 241 1 gusting 5 4.4
2019-Sep-20 07:50 236 0 gusting 3 4.4
2019-Sep-20 07:40 239 0 gusting 2 4.4
2019-Sep-20 07:30 238 0 gusting 4 3.9
2019-Sep-20 07:20 225 0 gusting 3 3.9
2019-Sep-20 07:10 221 1 gusting 5 3.3
2019-Sep-20 07:00 224 0 gusting 2 3.3
2019-Sep-20 06:50 234 0 gusting 2 3.3
2019-Sep-20 06:40 259 0 gusting 4 3.3
2019-Sep-20 06:30 227 0 gusting 2 3.3
2019-Sep-20 06:20 266 0 gusting 3 3.3
2019-Sep-20 06:10 255 1 gusting 5 3.3
2019-Sep-20 06:00 240 0 gusting 4 3.3
2019-Sep-20 05:50 239 1 gusting 5 3.3
2019-Sep-20 05:40 245 1 gusting 5 4.4
2019-Sep-20 05:30 253 0 gusting 2 3.9
2019-Sep-20 05:20 257 0 gusting 4 2.8
2019-Sep-20 05:10 273 1 gusting 5 2.2
2019-Sep-20 05:00 267 0 gusting 5 1.7
2019-Sep-20 04:50 248 1.1
2019-Sep-20 04:40 255 1 gusting 6 0.6
2019-Sep-20 04:30 246 1 gusting 6 0.6
2019-Sep-20 04:20 240 0 gusting 5 0.6
2019-Sep-20 04:10 260 1 gusting 6 0.6
2019-Sep-20 04:00 254 1 gusting 6 -0.0
2019-Sep-20 03:50 246 2 gusting 5 -0.0
2019-Sep-20 03:40 239 0 gusting 3 -0.0
2019-Sep-20 03:30 238 0 gusting 2 -0.0
2019-Sep-20 03:20 247 1 gusting 5 -0.0
2019-Sep-20 03:10 252 1 gusting 4 -0.0
2019-Sep-20 03:00 238 1 gusting 4 -0.0
2019-Sep-20 02:50 231 0 gusting 2 -0.0
2019-Sep-20 02:40 224 0 gusting 1 -0.0
2019-Sep-20 02:30 246 0.6
2019-Sep-20 02:20 260 0 gusting 3 0.6
2019-Sep-20 02:10 250 0 gusting 3 0.6
2019-Sep-20 02:00 281 1 gusting 5 -0.0
2019-Sep-20 01:50 275 2 gusting 7 -0.0
2019-Sep-20 01:40 250 0 gusting 3 -0.0
2019-Sep-20 01:30 271 1 gusting 4 -0.0
2019-Sep-20 01:20 267 0 gusting 3 -0.0
2019-Sep-20 01:10 273 1 gusting 4 -0.0
2019-Sep-20 01:00 277 1 gusting 4 -0.0